Theta_e
318 320 319 322 325 324 324 326 320 322 322 312 313 314 317 321 321 322 322 322 322 320 319 319 319 319 319 321 321 320 320 319 321 317 320 332 328 318 327 331 328 335 335 340 344 336 333 334 339 341 341 342 341 341 341 341 340 340 340 339 339 339 339 339 340 339 339 340 339 340 339 339 338 339 338 337 336 336 336 337 338 338 338 338 340 340 341 340 340 340 339 339 337 336 335 334 333
323 324 323 324 324 324 324 324 317 316 316 311 313 315 317 320 320 322 321 321 321 320 318 319 319 319 320 320 320 320 321 320 321 319 324 329 325 323 321 323 326 334 336 339 344 337 334 336 338 341 341 341 342 341 341 340 339 340 339 339 339 339 340 339 340 340 340 340 340 340 339 339 338 338 338 337 337 336 336 336 337 337 337 338 340 340 340 340 339 339 338 338 336 336 335 334 332
324 324 324 325 324 323 321 323 317 312 312 309 312 317 320 319 320 321 319 320 320 319 318 319 319 319 319 320 320 320 321 320 322 318 323 327 328 331 322 319 324 333 336 337 344 339 337 339 337 340 340 341 342 341 341 340 339 340 339 339 339 339 339 339 340 340 341 340 340 339 339 339 339 338 338 338 337 337 337 337 336 337 338 339 340 340 339 339 339 338 337 336 335 336 335 334 332
323 324 323 324 322 323 322 322 320 313 311 309 310 317 320 319 320 319 318 320 320 319 318 320 320 320 319 320 321 320 321 319 322 320 322 329 330 333 326 319 321 330 337 337 343 340 340 340 336 339 340 340 341 340 341 340 340 340 340 339 340 339 339 340 339 340 339 338 338 339 339 339 339 338 339 339 338 337 337 338 336 337 338 339 340 339 338 338 338 337 336 335 334 335 335 334 333
325 325 323 325 322 323 323 320 320 315 312 312 312 316 319 318 319 319 319 320 319 319 318 320 321 320 319 319 321 319 320 319 323 321 322 330 326 328 327 320 320 329 337 337 341 342 341 341 337 337 340 341 341 340 340 340 340 340 340 339 340 338 338 339 338 339 339 338 339 340 340 339 339 339 339 338 338 337 337 338 337 338 338 338 338 337 337 336 336 336 335 333 333 334 333 333 333
326 325 322 324 322 322 321 317 316 314 317 318 315 316 319 317 319 319 319 320 319 319 318 319 320 320 320 319 321 319 321 320 322 322 324 330 324 324 327 323 323 330 337 337 340 342 341 341 338 337 339 341 340 340 339 340 340 340 340 339 339 338 339 340 338 338 339 339 340 340 340 340 340 339 339 338 337 337 336 337 337 337 337 337 336 336 335 334 335 334 333 332 332 333 332 332 331
326 325 322 321 322 320 317 315 315 315 319 321 317 317 318 317 319 319 320 321 320 319 318 319 319 319 320 320 320 320 322 320 323 326 324 326 322 322 327 328 328 331 335 336 339 341 341 341 339 337 338 340 340 340 340 339 339 339 338 338 338 338 338 339 338 338 339 340 340 341 340 340 340 338 338 337 336 336 336 335 335 335 336 336 335 334 334 333 333 332 332 331 331 331 331 329 327
324 325 323 320 323 321 317 316 316 318 319 320 318 318 318 318 319 319 320 320 320 320 319 319 318 319 319 319 320 320 321 318 321 324 320 319 319 321 325 331 331 332 335 335 338 341 340 340 339 338 338 339 341 340 340 338 338 338 337 338 337 337 337 337 338 338 340 340 340 340 340 339 339 338 337 336 335 335 334 334 333 334 334 334 333 333 332 331 331 330 330 329 329 328 327 323 319
322 323 322 321 322 321 318 317 317 319 319 319 319 318 318 319 319 319 320 320 321 320 320 320 318 319 319 319 319 321 322 318 317 317 316 316 318 319 323 332 333 333 335 336 338 340 339 338 337 337 338 339 340 340 339 337 337 338 337 338 338 337 337 337 338 339 340 340 340 340 339 338 338 337 336 335 334 333 332 332 331 332 332 332 331 330 330 329 329 328 327 327 325 323 319 313 307
322 321 323 322 319 316 314 315 318 319 320 319 318 318 318 318 319 319 319 320 320 320 320 318 318 319 319 319 319 324 323 318 316 315 316 314 318 322 325 330 334 335 336 337 338 339 338 337 335 335 338 338 339 339 338 337 337 337 338 339 338 337 337 337 337 339 340 340 339 339 338 337 337 336 335 334 332 330 330 330 329 329 330 329 329 328 327 328 327 326 326 323 319 313 308 303 300
323 320 321 320 316 313 312 314 316 319 320 319 319 319 318 319 319 319 320 320 320 320 319 317 318 318 319 319 320 325 322 317 318 321 321 315 317 324 329 331 333 336 336 337 337 337 337 335 333 335 338 338 338 338 337 337 336 336 337 338 337 337 337 337 338 338 339 339 339 339 338 337 335 334 334 332 331 329 328 328 328 328 327 327 327 326 326 326 326 325 324 319 311 304 300 299 299
324 322 320 317 315 314 314 315 316 319 319 318 320 319 318 319 318 319 319 320 320 320 319 318 319 318 319 318 320 324 320 318 320 323 320 316 321 325 329 333 332 335 337 337 336 336 337 334 333 336 338 338 337 337 336 336 336 336 337 338 337 337 337 338 338 338 338 338 338 338 337 335 334 333 332 330 329 328 328 327 327 327 326 326 326 326 325 325 325 323 319 311 302 299 298 298 299
323 323 321 317 318 318 316 316 317 319 319 319 319 319 318 318 319 319 318 318 318 318 319 319 318 318 318 318 319 320 320 321 319 319 316 317 327 327 326 333 333 334 337 336 335 335 337 336 335 337 338 337 337 337 336 336 337 337 337 337 336 336 337 337 338 338 338 337 337 336 335 333 332 332 331 330 329 328 327 327 326 326 326 325 326 326 325 324 323 319 310 303 298 298 298 298 299
322 322 321 318 320 319 317 316 317 317 317 318 318 318 318 318 319 318 317 317 317 318 318 318 318 317 317 318 318 320 323 321 317 315 315 317 326 327 325 331 333 333 336 335 334 335 336 336 336 336 337 337 337 337 336 336 337 337 337 336 336 336 337 338 338 338 337 336 336 335 333 331 330 330 330 329 328 328 326 325 326 325 325 325 325 325 324 324 320 312 303 299 298 298 298 298 298
321 321 320 320 319 319 319 318 318 316 316 318 318 317 317 317 318 317 317 317 317 318 317 317 317 317 317 318 318 322 322 318 316 314 315 316 321 324 324 328 331 332 333 334 334 335 336 336 336 335 336 336 337 337 336 336 336 337 336 335 335 336 337 337 337 336 335 335 334 333 332 330 329 329 328 328 328 327 324 324 325 324 324 324 324 324 324 322 316 306 300 298 298 298 298 298 298
321 321 321 320 317 316 320 320 319 317 317 319 317 316 317 317 317 317 317 316 317 317 317 317 317 317 317 317 319 322 319 316 315 316 317 318 320 323 324 326 330 331 332 333 334 334 335 335 336 335 335 336 336 337 336 336 336 336 336 335 335 336 336 336 336 335 334 334 332 331 330 329 328 328 328 327 327 326 323 322 323 323 323 324 324 323 323 320 311 303 299 298 298 298 298 298 298
320 321 321 319 317 316 320 321 318 316 317 318 317 317 316 316 317 316 316 315 315 316 317 317 317 317 316 317 320 320 317 315 315 318 322 323 324 325 326 327 328 330 331 332 333 333 334 335 335 335 335 335 335 335 335 335 335 336 336 336 336 336 335 335 335 333 333 332 331 330 329 328 328 328 327 327 326 324 322 321 322 322 322 323 323 322 322 317 306 301 298 297 298 298 298 298 298
319 321 320 318 318 318 320 320 317 317 318 317 317 317 316 316 317 316 315 315 316 316 317 317 317 318 317 317 320 320 318 317 319 321 325 327 327 326 327 328 328 330 332 331 332 332 333 334 335 335 335 334 334 334 334 334 334 335 335 336 336 335 334 334 333 333 332 331 330 329 328 327 328 328 327 326 326 323 321 320 319 320 321 323 322 321 322 316 304 299 298 297 298 297 297 297 298
319 321 320 319 320 319 320 319 317 317 317 316 316 317 317 316 316 316 316 316 316 316 317 317 317 317 318 318 319 320 318 319 322 322 323 326 327 326 327 328 328 329 331 331 331 332 333 334 334 335 334 334 334 333 334 333 334 334 334 335 335 335 334 333 333 332 331 331 330 329 328 327 328 328 327 326 324 323 321 319 317 317 320 322 321 320 320 315 304 298 297 297 297 297 297 297 298
319 320 320 320 321 319 320 319 317 317 316 317 316 316 316 316 316 316 316 316 316 317 317 317 317 318 318 318 318 319 319 320 321 321 321 323 324 325 325 327 329 328 329 331 331 331 332 334 334 334 334 334 334 333 333 333 333 333 333 332 333 333 333 332 332 331 330 330 329 328 328 327 327 327 327 325 323 322 322 320 317 316 320 322 320 319 319 314 304 298 297 297 297 296 297 297 297
320 321 320 319 319 319 319 318 318 318 317 316 316 316 316 316 316 316 316 316 316 316 317 317 317 317 317 318 318 318 319 319 320 321 321 321 322 324 323 324 327 328 328 329 331 331 332 333 333 333 333 334 334 333 333 333 332 332 331 331 331 331 331 331 330 330 329 329 328 328 327 327 327 326 326 324 322 322 323 320 317 317 320 321 320 319 317 311 302 298 297 297 296 296 297 297 298
320 320 320 318 317 318 318 318 317 317 317 316 316 316 316 316 316 316 316 316 316 316 316 317 316 317 317 317 318 318 319 320 319 320 321 322 322 322 322 322 324 326 327 328 330 331 331 331 332 333 333 334 334 333 332 332 331 331 331 331 331 331 330 330 330 329 329 329 328 327 327 327 326 326 325 324 323 322 322 320 318 319 320 320 319 317 316 310 302 298 297 296 296 296 297 297 298
319 318 318 318 317 318 318 318 317 317 316 316 316 316 316 317 316 316 316 316 316 316 316 316 316 316 317 317 317 317 317 318 318 318 320 321 321 321 321 321 322 324 327 329 328 330 330 330 331 332 332 334 334 332 332 332 331 331 331 331 332 331 331 330 329 329 329 329 328 327 326 326 325 325 324 323 322 321 322 321 320 320 321 320 318 316 317 312 304 300 297 296 296 296 297 298 298
318 316 316 317 317 317 318 317 317 316 316 316 316 316 316 316 316 316 316 317 316 317 317 316 316 317 317 317 316 317 317 317 318 318 319 320 321 321 321 321 321 321 325 328 327 328 329 330 330 330 331 332 333 332 332 331 331 331 331 331 331 331 330 330 329 329 329 329 328 327 327 326 325 324 323 322 320 320 321 321 321 320 320 321 317 316 317 312 305 299 296 296 296 297 297 297 298
318 317 316 316 317 317 317 317 316 317 316 316 316 316 316 316 316 316 315 316 316 316 317 316 316 317 316 316 316 316 317 317 317 318 318 319 319 320 321 321 321 321 322 325 326 326 327 328 328 329 330 330 331 331 331 331 330 330 330 330 331 330 329 329 329 329 329 328 327 327 326 325 325 324 322 321 320 320 321 320 320 320 320 320 317 316 314 310 304 298 297 297 296 297 297 297 298
316 317 316 316 316 316 316 315 315 316 316 315 315 315 315 315 315 315 315 315 316 316 316 316 316 316 315 316 316 315 315 316 317 317 317 318 319 320 320 321 321 321 320 321 324 325 325 326 327 327 327 328 329 330 330 330 329 329 330 330 330 329 329 329 329 328 328 327 327 326 326 325 324 323 321 320 319 319 320 320 320 320 319 318 316 313 310 307 302 297 297 296 296 296 297 298 298
315 315 315 315 314 314 314 314 314 315 315 315 314 315 315 315 314 314 315 315 315 315 316 316 315 315 315 315 315 315 315 315 316 316 317 317 318 320 320 320 320 320 320 320 322 324 324 324 326 325 325 326 327 328 328 328 329 329 329 329 329 329 328 329 328 328 327 326 326 325 325 325 324 322 321 320 319 319 319 319 319 318 317 315 313 311 307 303 299 297 297 296 296 296 297 298 297
314 314 313 313 313 314 314 314 314 315 314 314 314 314 314 314 314 314 315 315 315 315 315 315 314 314 314 315 315 315 315 316 316 316 316 317 317 318 319 320 320 319 319 318 318 321 323 323 324 324 325 325 326 327 327 327 328 328 328 329 329 329 328 328 328 328 327 326 325 325 325 324 323 322 320 318 318 318 318 317 316 315 314 312 310 308 304 301 298 297 296 296 296 296 296 297 296
313 312 312 313 313 314 314 314 315 315 315 314 313 313 313 314 313 314 315 315 315 315 314 315 314 315 314 315 315 315 316 316 317 317 316 316 316 316 316 317 318 319 318 317 316 319 322 323 323 324 325 325 325 326 326 326 327 327 328 328 329 328 328 328 327 327 327 326 325 324 323 323 323 321 319 317 316 316 316 315 314 312 311 309 308 306 303 300 298 297 296 295 296 296 296 296 296
312 313 313 313 314 314 315 315 315 315 314 313 312 311 312 314 315 315 315 315 315 314 314 314 314 314 314 315 314 315 316 315 315 316 317 316 316 315 315 315 315 317 318 318 318 318 319 320 321 322 323 324 324 324 325 325 326 327 327 327 327 327 327 327 326 326 326 325 324 322 321 321 322 322 319 317 315 314 314 312 311 311 309 308 306 304 302 300 298 296 296 295 295 296 296 296 295
313 313 314 314 313 314 316 316 314 313 312 311 312 310 312 314 314 315 315 315 314 314 313 314 314 314 314 314 315 315 315 315 316 316 316 315 315 315 315 315 314 314 315 317 318 318 318 318 318 319 321 322 324 324 325 325 325 326 326 326 326 326 326 326 325 325 325 324 323 321 320 320 321 321 319 316 314 313 312 311 310 309 308 307 305 304 302 301 298 296 295 295 295 295 296 296 295
314 314 314 315 314 315 317 316 314 314 312 311 312 311 313 314 315 315 315 314 314 313 313 313 313 314 314 314 314 315 315 315 316 316 315 315 314 314 314 314 313 313 313 314 316 317 318 318 317 318 318 320 323 324 324 325 325 325 325 325 325 325 325 325 325 325 324 324 322 321 320 320 320 321 319 316 314 312 311 310 309 308 307 305 304 303 302 301 298 296 295 295 295 295 296 296 295
315 315 314 315 315 315 317 316 316 316 313 311 312 312 313 314 314 314 314 314 314 313 313 313 314 314 314 314 314 315 315 315 316 315 314 314 313 313 313 313 313 313 313 312 314 315 317 317 317 317 317 318 321 323 323 324 325 324 324 325 324 325 324 324 324 324 323 323 322 321 319 319 319 320 319 317 314 312 310 309 307 307 306 304 304 303 302 301 298 296 295 295 295 296 297 296 296
315 316 316 316 316 315 315 316 317 316 314 313 312 312 312 313 314 314 314 314 313 313 313 313 314 314 314 314 315 314 315 315 315 314 314 314 314 313 312 312 312 312 312 312 312 314 315 316 316 316 316 318 319 321 323 323 324 324 324 324 324 324 324 323 323 322 322 322 321 320 319 318 318 319 319 317 315 312 310 308 307 306 305 304 303 303 302 300 298 296 295 295 296 296 297 296 296
316 317 316 316 317 315 314 316 317 316 315 315 315 313 313 314 314 314 314 314 314 313 313 313 314 314 314 315 315 315 315 314 314 314 314 314 313 312 312 311 311 311 311 311 310 311 313 314 316 316 315 316 318 319 321 322 322 322 322 323 322 322 322 322 322 321 321 321 320 319 318 318 317 318 318 317 315 312 310 308 306 305 304 303 303 302 301 300 298 297 296 295 296 297 297 297 297
317 317 316 315 315 315 315 316 317 317 316 315 315 315 315 315 314 314 314 314 314 314 314 314 315 315 315 316 316 316 315 314 315 315 314 313 313 312 311 310 310 309 309 309 309 310 311 313 314 315 314 315 316 317 319 320 321 321 321 321 321 320 321 321 321 320 320 320 319 318 317 317 316 317 317 317 315 312 309 307 306 304 303 303 302 301 300 299 297 296 296 296 296 297 297 297 297
317 316 315 315 314 315 316 317 317 317 316 314 314 314 314 314 313 314 314 314 314 314 314 314 315 316 316 317 316 315 314 315 315 314 313 312 312 311 310 309 309 309 308 308 308 309 310 311 312 314 314 313 314 315 317 318 319 319 320 320 320 319 319 319 319 319 319 318 317 316 316 315 315 315 316 316 315 312 309 307 305 303 302 301 301 300 299 298 297 296 296 296 296 296 297 297 297
316 316 315 315 315 315 316 317 317 316 315 314 314 313 313 313 313 313 314 314 314 314 315 315 316 317 317 316 315 314 314 315 314 313 312 311 310 309 308 308 307 307 306 306 307 307 308 309 310 312 313 312 312 313 315 316 317 317 318 318 318 318 318 318 317 317 317 316 315 315 314 314 314 314 314 314 314 312 309 307 305 303 302 300 300 299 299 298 297 296 296 296 295 295 296 297 296
315 315 315 315 316 316 317 317 316 314 313 313 314 313 313 313 314 315 315 315 315 316 316 317 317 317 316 315 314 315 314 314 313 311 311 309 308 307 306 306 305 305 304 304 305 306 306 308 309 310 311 311 311 311 312 314 315 315 316 317 317 317 317 316 316 316 315 314 313 313 312 312 313 312 312 312 312 311 310 307 305 303 302 300 299 298 298 297 296 296 296 296 295 295 296 296 296
315 315 315 316 317 317 316 316 315 313 313 314 314 313 314 315 315 316 316 316 315 316 317 317 317 315 315 315 314 314 313 313 311 310 309 308 307 306 305 304 304 303 303 304 304 304 305 306 307 308 310 310 310 310 310 311 312 313 314 314 314 314 314 313 313 313 312 312 312 311 311 311 311 311 311 311 311 311 310 308 305 303 302 300 298 298 298 297 296 296 295 296 296 295 296 296 295
316 316 316 316 317 317 316 315 314 314 314 314 314 314 315 317 317 316 316 316 316 317 317 315 315 314 315 314 314 313 312 311 310 308 307 306 306 305 304 303 303 302 302 302 303 303 304 304 305 307 308 309 309 309 309 309 310 311 312 311 311 311 311 310 310 310 310 310 310 310 310 310 310 310 310 310 310 310 309 308 305 303 302 300 298 297 297 297 296 296 295 296 296 295 296 296 295
317 317 317 316 317 317 315 315 315 315 315 314 314 316 317 316 317 318 317 317 317 318 317 314 314 314 314 313 312 311 311 309 308 307 306 305 305 304 303 302 302 301 301 301 302 302 303 304 304 305 306 307 307 307 308 308 308 309 309 309 309 309 309 309 309 309 309 309 308 308 308 308 308 308 309 308 308 309 308 307 305 303 302 300 298 297 297 297 297 296 295 295 296 296 296 296 295
317 318 318 317 316 316 316 316 315 315 315 314 314 316 318 317 317 319 319 318 318 318 315 313 314 313 312 311 310 310 309 308 307 305 304 304 303 303 302 301 300 300 300 300 301 301 302 302 303 304 305 305 305 305 306 307 307 307 308 308 308 309 309 309 309 308 308 308 308 307 307 306 306 307 307 306 307 307 306 306 305 303 301 300 298 297 297 297 297 296 295 295 295 295 297 297 296
318 317 316 316 315 315 316 315 314 314 315 315 315 315 317 318 318 319 318 318 319 316 313 313 313 312 310 310 309 308 307 306 305 304 303 302 302 302 301 300 300 299 299 299 300 300 301 301 301 302 303 303 303 304 305 305 306 306 307 307 307 307 307 308 308 307 306 306 306 306 306 305 304 305 305 305 305 305 305 305 304 303 301 300 299 297 297 297 297 296 296 295 295 295 296 297 296
317 314 313 314 313 313 314 314 314 314 315 317 317 316 319 319 319 319 318 317 317 314 312 313 312 311 310 309 308 307 306 305 304 303 302 301 301 300 300 299 299 298 298 299 299 299 299 299 299 299 300 301 301 302 303 304 304 305 305 306 306 306 306 306 306 306 305 304 304 304 304 304 303 303 303 304 304 304 304 304 303 302 301 300 299 297 297 297 297 297 296 295 295 295 295 296 297
315 313 313 313 313 314 314 313 313 314 316 319 318 317 319 321 318 318 317 316 315 312 312 312 311 310 309 308 307 306 305 304 302 302 301 301 300 299 299 298 298 298 298 298 298 298 299 298 298 298 298 299 299 300 301 302 303 304 304 305 305 305 306 306 305 305 305 304 303 303 303 303 302 302 302 302 302 302 302 302 302 301 301 300 299 297 297 297 297 297 296 295 295 295 295 296 296
312 313 313 314 315 314 313 313 313 316 319 320 319 317 319 321 319 317 316 315 313 312 311 311 311 309 308 307 306 304 303 302 302 301 300 300 300 299 298 298 297 297 297 297 298 298 298 298 297 297 297 297 297 298 299 300 301 302 303 303 304 304 304 305 305 305 305 304 304 303 303 302 302 301 301 301 301 301 301 301 301 301 300 300 299 298 297 296 297 296 296 295 295 295 295 295 296
312 313 313 315 317 316 315 315 314 319 323 319 316 317 318 320 319 316 315 314 312 313 312 311 310 308 307 306 304 303 302 301 301 300 299 299 298 298 298 298 297 296 296 297 297 297 297 297 297 296 296 296 296 296 297 298 299 300 300 301 302 302 302 303 303 304 304 304 304 303 303 302 301 301 300 300 300 300 300 300 300 300 300 299 299 298 297 296 296 296 296 296 295 295 295 295 296
311 312 313 317 319 318 318 319 318 321 322 315 313 316 318 319 318 316 317 315 312 312 312 311 310 308 306 305 303 302 301 300 300 299 298 298 297 298 297 297 297 296 296 296 296 296 296 296 296 296 296 295 295 295 295 296 297 297 298 298 299 300 301 301 302 302 302 303 303 303 302 302 302 301 300 300 300 299 299 299 299 299 299 299 298 298 297 297 296 296 296 296 295 295 294 295 295
312 313 315 317 318 318 319 320 319 320 319 314 313 316 318 318 317 318 319 315 311 311 311 310 309 307 305 304 303 301 300 300 299 298 298 297 297 297 297 296 296 295 295 295 295 295 296 296 295 296 296 295 295 295 294 295 295 296 296 296 297 298 298 299 300 300 301 301 301 302 302 301 301 301 301 300 300 299 299 299 299 299 298 298 298 298 298 297 297 296 296 295 295 295 294 294 294
313 314 316 317 317 318 319 319 319 320 320 317 315 319 320 319 317 317 316 313 310 310 309 308 307 305 304 303 302 301 299 299 298 298 297 297 297 296 296 296 295 295 295 294 294 294 295 295 295 295 295 295 295 295 295 294 294 294 294 295 295 296 297 297 298 298 299 299 300 300 300 300 300 301 301 300 300 299 299 298 298 298 298 298 298 297 297 297 297 296 296 296 295 295 295 294 294
315 313 314 316 317 318 319 320 320 319 321 319 317 319 318 317 317 316 315 312 309 309 308 306 305 304 303 302 301 300 299 298 298 297 296 296 296 295 295 295 295 294 294 294 294 294 294 294 294 294 294 294 294 294 294 294 294 294 293 293 294 294 295 296 296 297 297 297 298 298 299 299 299 299 300 300 300 299 299 298 298 298 298 297 297 297 297 297 296 296 296 295 295 295 295 294 294
314 312 315 315 316 317 318 319 319 319 319 319 318 319 318 317 318 317 315 313 309 308 307 305 304 303 302 301 300 299 298 297 297 296 296 295 295 295 294 294 294 294 294 294 293 293 293 293 293 293 293 293 293 293 293 293 294 294 294 293 293 293 293 294 294 295 295 296 296 297 297 297 298 298 298 298 299 299 299 298 297 297 297 297 297 297 297 296 296 296 296 295 295 295 295 294 294
313 313 315 314 315 315 315 317 318 318 319 319 318 318 317 317 317 314 313 311 309 308 306 305 303 302 301 299 298 297 297 296 296 295 295 295 295 294 294 294 293 293 293 293 292 293 293 293 293 293 293 293 292 292 292 292 292 292 293 293 293 293 293 293 293 293 294 294 295 295 296 296 296 296 297 297 297 298 298 297 297 297 297 297 297 296 296 296 296 296 295 295 295 295 294 294 294
312 312 312 314 316 316 314 317 318 318 319 318 318 318 317 317 316 314 313 312 309 307 305 304 303 301 300 298 297 296 296 296 295 295 294 294 294 294 293 293 292 292 292 292 292 291 291 292 292 292 292 292 292 292 292 292 291 291 291 291 291 292 293 293 293 293 293 293 293 293 294 294 295 295 295 296 296 296 296 296 296 296 296 296 296 296 296 296 295 295 295 295 295 294 294 294 294
310 309 311 312 315 315 315 316 317 318 318 318 318 318 317 316 316 315 315 312 309 307 305 303 301 300 299 298 297 296 296 295 295 294 294 294 293 293 292 292 292 292 292 292 291 291 291 291 291 291 291 291 291 291 291 291 291 290 289 289 289 290 290 291 292 292 292 292 292 292 292 293 293 293 294 294 294 295 295 295 296 295 295 295 295 295 295 295 295 295 295 294 294 294 294 294 294
311 311 312 313 313 313 314 315 316 317 317 318 319 318 316 314 315 314 313 311 310 308 305 302 299 298 297 297 296 295 295 295 294 294 293 293 293 293 292 292 292 292 292 292 292 291 291 290 290 290 290 290 290 290 290 290 290 290 290 289 288 288 288 289 290 290 291 291 291 292 292 292 292 292 293 293 293 294 294 294 295 295 295 295 295 295 295 295 295 294 294 294 294 294 293 293 293
314 313 313 313 314 315 315 316 316 316 317 318 318 318 317 313 312 312 310 308 307 305 302 300 298 297 297 296 295 295 294 294 293 293 293 293 293 292 292 292 292 292 291 291 291 291 290 290 290 290 290 289 289 288 288 289 289 290 290 289 289 288 288 288 288 288 289 289 290 291 291 291 291 291 291 292 292 292 293 293 293 294 294 294 294 294 294 294 294 294 294 294 294 293 293 293 293
Wind_Speed
5 6 5 5 5 7 6 4 4 2 3 5 3 2 2 4 4 4 4 4 2 4 6 5 4 4 5 6 7 10 9 9 7 6 4 4 1 2 9 11 11 12 17 17 15 24 25 25 24 22 22 20 19 18 17 16 16 15 15 15 15 14 13 13 12 12 11 11 10 9 9 8 8 8 7 7 7 7 7 7 8 8 7 7 5 6 6 6 6 5 5 4 4 3 3 3 4
4 5 4 4 5 5 3 1 4 3 3 5 0 2 4 2 2 2 6 7 5 4 5 4 4 5 7 7 8 9 7 5 6 7 3 3 0 2 8 12 12 12 16 16 15 23 25 24 24 23 22 21 20 19 18 17 17 16 16 15 15 14 13 13 12 12 11 11 10 10 10 9 9 8 8 7 6 6 6 6 7 7 7 7 6 6 6 5 5 4 4 4 4 3 3 2 2
3 4 4 4 5 4 3 2 4 4 4 4 2 5 4 2 2 5 6 6 5 4 3 3 4 5 6 7 6 6 4 2 4 6 1 1 1 3 5 12 13 12 15 16 15 21 24 21 24 24 22 21 19 20 18 18 18 16 16 15 14 13 13 12 12 12 11 11 11 11 11 11 10 9 9 7 6 6 6 6 6 7 6 7 6 6 5 4 4 4 4 3 3 3 3 2 1
2 3 3 4 3 4 3 3 4 5 4 3 2 4 4 3 4 6 6 5 4 3 3 3 2 2 5 6 4 5 5 3 2 4 2 2 2 2 4 12 15 13 14 15 15 19 22 21 24 25 23 21 20 20 19 18 19 17 16 16 15 14 14 13 12 12 12 12 12 12 11 12 11 9 9 8 7 5 6 6 6 6 6 6 6 6 5 4 4 4 4 4 3 4 3 4 4
1 2 3 5 3 2 2 3 3 4 4 4 3 3 5 4 5 7 7 6 3 2 3 3 2 2 4 6 4 3 4 4 1 1 3 2 1 2 4 12 16 14 14 16 15 16 19 20 23 26 25 21 20 20 20 19 19 18 17 17 16 15 14 13 13 13 13 13 12 12 12 12 10 10 9 8 7 6 6 6 6 6 6 6 5 5 4 4 4 4 4 3 4 5 5 5 6
3 2 3 4 2 2 2 4 3 4 3 3 5 5 6 6 7 7 7 7 1 1 3 4 4 2 5 4 5 4 4 4 1 1 2 1 2 3 4 10 15 15 14 17 17 15 17 19 21 25 26 23 21 20 20 20 19 18 17 17 16 15 15 14 15 14 14 13 13 13 12 12 11 10 9 7 7 6 6 5 5 5 6 6 6 5 4 4 3 4 4 3 4 6 6 7 8
4 2 3 4 2 1 5 5 4 5 2 3 5 7 8 8 7 7 8 6 1 3 3 3 3 5 5 2 4 5 4 3 2 3 4 3 4 3 5 9 13 13 15 18 18 16 17 20 21 24 26 24 22 20 21 21 19 19 18 18 17 16 16 16 16 15 14 14 13 13 12 12 11 10 8 8 7 7 6 6 6 5 5 5 6 5 5 4 4 4 4 4 5 7 7 8 9
4 3 1 3 3 3 4 5 5 5 2 2 6 7 8 8 7 7 8 6 2 1 3 4 3 5 2 2 3 3 5 5 5 7 7 8 7 5 6 9 11 12 15 18 18 17 18 21 21 24 27 25 23 21 22 22 20 19 19 18 17 17 17 16 16 15 14 14 14 14 13 12 10 9 9 9 8 8 7 7 7 7 6 5 6 6 5 6 5 5 4 4 7 9 8 9 8
4 3 1 3 3 3 4 5 5 4 4 4 5 6 7 7 6 5 7 6 4 3 2 2 3 5 3 2 6 3 7 5 6 8 9 11 9 7 7 9 10 11 15 16 17 17 18 22 22 25 28 27 25 23 22 22 21 20 19 18 17 17 17 17 17 16 15 15 15 14 13 12 11 10 11 11 10 10 10 10 8 9 9 7 7 7 7 7 6 6 5 6 9 9 8 8 6
4 2 2 3 3 4 4 4 3 2 3 4 5 7 6 5 5 4 6 6 3 3 0 1 4 8 8 8 8 1 5 4 3 5 7 10 8 7 7 10 10 11 14 15 16 16 17 23 23 25 29 28 26 24 23 23 22 21 20 18 18 18 17 17 18 17 16 16 15 14 13 12 11 11 12 11 10 11 11 11 11 11 10 9 8 8 8 8 7 6 6 8 10 9 7 5 2
3 2 2 3 4 5 4 4 4 3 4 4 5 4 4 2 3 4 4 5 3 4 1 3 4 7 9 9 6 1 4 3 1 1 5 7 7 8 6 10 12 11 14 14 14 14 15 20 23 26 29 29 27 26 24 24 23 22 21 20 19 18 18 18 18 18 17 16 14 13 13 12 12 12 12 11 12 13 11 12 11 11 10 9 9 8 9 8 8 8 8 10 9 6 4 1 2
3 2 2 4 4 4 4 6 6 6 7 7 3 3 2 1 1 3 3 5 4 6 4 6 1 4 7 8 4 3 6 4 4 4 6 5 5 8 7 8 12 12 13 15 15 14 14 16 21 27 30 29 28 27 25 25 24 23 23 22 21 20 20 20 18 18 17 16 16 15 14 13 14 14 14 15 17 15 11 11 11 11 10 10 9 9 8 8 8 9 10 9 6 3 2 3 3
4 2 3 5 4 5 5 6 6 7 7 3 2 5 2 1 3 3 4 6 7 9 4 4 1 4 8 8 6 3 6 6 6 7 6 4 4 8 8 6 10 12 12 15 16 15 15 14 18 26 29 28 28 27 26 25 25 25 24 23 22 21 21 21 19 19 18 17 18 17 16 15 15 15 17 18 19 16 12 12 12 11 11 11 10 9 9 8 9 10 10 6 4 3 3 4 3
3 3 4 5 3 5 6 6 6 5 5 3 4 4 2 3 3 2 5 8 9 6 3 1 2 4 8 7 6 3 5 6 5 6 6 7 7 8 10 8 10 12 12 14 16 16 16 16 18 22 26 27 27 26 26 27 26 26 25 24 24 23 22 21 21 20 19 19 19 18 17 17 17 17 18 19 18 17 15 14 13 12 12 11 10 10 9 9 10 11 7 5 5 5 4 4 3
3 3 3 5 4 6 4 4 6 5 6 2 3 2 2 5 3 3 5 8 8 3 2 3 3 3 6 6 5 3 7 5 4 4 6 9 9 9 11 11 10 13 14 14 16 16 18 18 19 21 23 24 24 23 25 27 28 27 27 26 26 25 24 23 22 22 21 21 20 20 20 19 19 18 18 18 17 17 16 16 15 13 12 12 11 11 10 10 12 10 7 7 6 5 4 4 3
2 3 3 5 5 6 3 3 4 4 5 2 4 3 4 5 5 5 3 3 9 5 4 6 7 7 9 10 7 5 7 4 2 3 4 7 8 8 10 11 10 12 15 16 17 18 19 20 20 21 23 24 24 23 23 25 28 29 28 28 28 27 26 25 24 23 23 23 22 22 22 22 21 20 20 19 18 18 17 17 16 14 13 12 12 11 11 11 12 10 8 7 6 5 4 3 2
2 3 5 5 5 6 3 3 4 3 5 3 3 4 6 6 4 4 1 3 11 11 10 10 9 11 13 15 7 3 5 4 2 3 5 6 7 7 8 10 11 12 15 17 19 19 20 21 22 22 22 24 26 26 25 24 27 30 30 30 29 29 28 28 26 25 25 24 24 24 23 23 21 21 21 20 20 19 19 17 16 16 14 13 13 12 11 11 12 10 9 8 7 5 3 3 2
3 4 5 6 6 6 3 4 6 6 7 8 5 2 6 9 5 3 1 7 12 13 15 14 13 15 18 19 11 7 9 7 6 6 7 8 7 8 9 10 12 13 15 17 19 21 21 23 24 23 23 24 25 26 27 25 26 28 31 31 30 31 30 30 29 27 27 25 25 25 24 22 20 18 19 20 19 19 19 18 17 16 14 14 14 12 11 11 12 11 10 9 7 5 4 3 2
5 5 6 6 7 7 5 7 9 8 9 10 10 8 8 10 9 3 6 12 11 14 15 14 15 16 18 19 16 14 11 9 9 10 11 11 11 11 11 11 14 15 16 17 20 23 23 23 25 26 25 25 26 26 26 25 25 25 29 30 29 31 31 32 31 28 26 24 24 26 24 20 18 17 16 19 19 17 18 18 18 17 16 16 16 13 11 11 13 12 11 10 7 6 5 3 2
6 6 7 7 9 10 8 8 10 11 11 12 12 11 11 10 9 7 9 14 13 15 14 14 16 14 12 13 14 15 13 12 11 12 14 15 15 14 14 13 14 17 18 19 19 22 24 23 25 27 27 25 26 26 26 26 26 25 25 28 29 28 28 30 29 27 24 23 23 24 22 20 19 17 16 19 19 17 17 18 18 18 17 18 18 14 11 12 14 15 12 9 8 8 7 5 3
4 6 8 9 9 10 9 10 11 10 9 10 12 12 13 11 8 9 10 12 12 13 13 14 16 14 12 10 10 10 11 12 12 14 15 16 17 17 16 16 15 16 18 18 17 19 24 25 24 26 27 26 26 26 26 26 26 25 24 26 29 26 25 26 26 26 25 25 24 22 21 21 19 17 17 19 19 16 16 18 19 19 18 18 19 15 12 15 16 16 13 11 11 9 8 6 5
5 8 12 13 12 12 10 11 9 5 6 9 13 13 12 9 7 10 12 12 11 12 13 15 17 16 15 14 13 11 9 11 12 14 15 17 18 18 18 17 16 14 15 16 17 18 23 26 25 24 25 26 27 26 25 25 25 25 25 26 27 25 24 24 24 25 26 25 25 24 22 22 21 18 16 18 19 17 16 18 20 20 18 17 19 16 14 16 17 17 15 13 13 11 9 8 7
7 10 12 13 14 13 11 10 3 1 8 11 13 12 11 11 12 13 13 16 17 17 16 17 20 19 19 17 14 12 11 13 14 16 17 17 18 19 19 17 16 14 14 15 17 17 19 24 25 24 24 25 27 26 24 24 25 25 25 26 26 24 24 24 23 24 25 25 26 25 24 23 23 20 17 18 20 18 16 18 19 19 18 18 19 17 15 16 18 18 16 15 14 12 11 9 8
8 11 13 14 14 12 12 11 4 4 12 14 12 12 13 15 15 14 15 17 19 20 19 19 21 20 19 17 15 14 14 15 16 19 19 18 18 19 18 17 16 14 14 14 15 16 18 21 24 24 24 24 26 27 25 23 24 24 25 25 25 25 24 23 23 24 24 25 26 27 25 24 24 22 18 19 20 19 17 18 18 19 18 17 19 17 16 19 20 19 18 17 16 13 11 10 9
12 14 13 13 12 11 11 12 10 10 12 12 12 15 18 18 15 17 22 20 19 21 20 19 20 18 17 15 16 14 14 15 16 19 20 18 18 17 15 15 15 15 16 15 15 17 19 20 24 26 25 24 25 26 27 25 24 24 24 24 25 26 25 23 23 23 24 24 25 28 28 26 25 22 20 20 20 19 18 18 18 18 18 17 18 17 19 23 22 20 19 18 16 14 12 11 11
7 10 12 11 11 11 12 13 14 13 10 10 12 16 19 17 14 17 22 19 17 18 19 18 16 16 15 13 14 14 14 15 15 17 17 16 15 14 14 14 14 17 19 18 17 19 21 22 25 28 28 27 25 25 27 26 25 24 24 25 25 26 26 23 23 24 24 24 25 29 31 28 24 22 21 20 20 20 19 19 18 18 18 17 19 20 22 24 22 21 20 18 17 15 14 13 12
5 8 11 12 14 15 15 16 17 14 13 14 14 16 18 14 10 13 16 12 9 10 13 14 13 14 14 13 13 13 14 14 15 16 15 13 11 12 13 14 16 19 19 20 21 21 23 24 26 29 30 29 27 27 28 27 25 25 24 25 25 26 26 25 24 24 24 25 26 29 32 31 27 23 22 21 21 21 20 20 20 19 19 20 23 24 24 24 22 22 21 19 18 17 16 15 14
8 9 12 15 17 16 17 18 17 14 12 12 13 15 16 13 10 14 18 14 11 11 12 13 13 14 15 15 14 11 12 13 14 13 12 12 10 11 13 14 17 20 21 24 25 22 22 24 25 27 29 30 31 30 30 30 27 25 25 25 26 26 26 26 25 24 24 25 27 31 34 35 32 25 23 23 22 22 21 22 22 22 23 25 26 27 26 24 23 22 22 21 19 17 17 16 15
7 8 11 15 15 16 18 18 16 14 8 3 4 10 12 12 14 19 20 17 14 13 13 13 13 14 14 14 13 11 12 13 13 11 11 12 12 13 14 15 16 18 21 25 26 22 20 22 24 25 27 29 33 32 31 33 30 26 26 25 25 26 26 26 26 25 25 25 28 33 36 37 37 28 24 26 26 22 22 24 26 26 27 28 28 28 27 26 24 23 23 22 20 18 18 18 17
7 9 9 11 12 13 15 12 8 8 5 7 4 7 7 10 14 17 15 11 11 10 11 14 14 14 14 13 12 13 13 13 13 12 11 11 11 13 15 17 17 18 18 17 19 21 21 23 25 26 27 29 32 32 29 31 30 27 26 25 25 26 27 27 25 24 24 25 29 35 38 37 38 32 25 28 29 25 25 28 29 29 29 28 29 29 28 27 26 25 25 23 21 20 18 19 17
8 10 7 7 8 9 8 5 6 4 4 9 8 7 8 10 13 15 9 3 7 9 13 16 16 15 14 13 13 14 15 14 14 14 13 12 12 12 14 17 17 18 17 14 15 19 21 23 26 26 28 29 30 30 29 27 26 26 25 24 24 26 27 26 25 25 23 24 29 35 38 38 39 36 30 29 31 28 27 29 30 29 29 29 30 30 29 28 27 26 25 24 22 20 18 18 17
7 9 7 7 8 8 8 6 8 7 3 9 10 7 8 9 9 11 7 4 8 11 14 16 17 18 16 13 13 15 14 13 13 12 11 11 11 12 13 15 15 14 15 15 14 16 17 20 23 24 26 28 27 28 29 26 23 22 23 22 23 23 24 25 24 24 23 23 27 34 38 38 39 39 35 33 32 31 29 29 30 30 31 31 31 31 30 28 27 26 26 24 23 21 18 18 16
7 8 8 9 9 9 8 5 7 7 2 9 12 8 9 9 9 11 12 14 15 15 16 18 19 19 17 14 12 12 12 11 9 7 8 10 11 12 13 13 13 12 12 13 13 13 14 16 20 22 23 25 24 24 25 24 20 19 19 19 20 20 21 22 21 21 22 21 23 29 36 39 41 41 39 37 34 33 32 31 30 31 33 33 32 31 30 29 27 26 26 24 23 22 19 19 16
6 7 9 10 11 10 8 7 7 3 5 8 12 11 13 13 13 14 16 18 17 16 19 20 18 16 15 13 11 12 11 8 6 6 9 11 11 12 12 12 11 10 9 9 10 11 12 12 14 18 19 19 20 21 21 21 19 17 17 17 17 18 18 18 19 19 20 20 20 24 32 38 40 41 41 39 37 33 32 32 31 32 34 34 32 31 31 28 26 27 27 25 23 21 20 20 16
10 10 9 10 11 12 12 11 9 6 9 13 13 13 16 16 15 14 15 16 15 16 18 19 17 16 15 13 11 10 7 5 5 7 10 11 12 13 12 12 12 10 8 7 6 6 8 9 9 12 15 15 15 16 16 17 17 16 15 15 15 16 17 18 19 18 18 20 22 23 29 35 37 40 41 40 39 35 33 32 31 32 34 34 32 31 30 28 26 26 27 26 23 19 18 18 16
16 14 12 12 13 13 14 15 13 14 16 15 15 16 17 16 16 15 15 16 16 17 17 17 16 15 14 11 6 3 3 5 6 8 11 13 14 14 14 14 14 13 11 9 7 5 4 6 6 7 9 11 11 12 12 13 14 14 14 15 16 16 18 21 20 17 18 22 24 24 27 32 34 38 40 40 39 36 34 33 31 32 34 34 33 32 32 30 30 29 27 27 25 20 16 16 17
17 15 13 14 14 13 14 15 14 14 14 11 12 16 17 17 16 16 17 16 16 18 17 16 17 15 10 3 2 3 4 4 6 10 13 15 17 17 16 16 17 17 17 15 12 9 5 4 5 5 6 8 9 10 11 12 13 13 13 14 16 16 18 21 19 17 21 24 21 21 25 29 31 34 37 39 39 37 33 32 32 32 33 34 34 35 33 31 32 31 28 27 28 25 20 17 19
15 13 12 13 12 12 15 16 15 12 9 9 12 16 17 17 18 20 19 16 15 15 15 17 17 10 2 3 3 3 2 5 7 10 14 16 18 19 17 18 20 21 21 20 18 14 9 5 4 4 4 6 8 9 10 11 12 12 12 12 13 13 14 16 16 17 22 22 17 18 22 25 28 31 34 37 38 37 35 32 32 33 35 35 34 33 32 30 32 31 29 28 28 27 23 21 22
13 10 11 10 9 12 14 12 8 4 3 9 14 16 15 17 21 20 17 13 11 12 15 15 9 3 3 2 2 3 6 8 9 11 14 16 18 19 18 19 20 20 20 21 21 18 13 9 6 3 3 4 6 7 9 9 9 10 10 9 9 9 10 10 12 13 16 15 14 17 20 21 25 28 31 34 36 37 37 35 33 33 36 35 34 33 32 32 34 33 32 31 28 25 22 22 26
10 8 9 9 10 12 10 7 5 3 7 12 14 14 12 15 16 11 10 9 8 12 13 5 4 4 4 5 6 8 9 9 11 12 13 15 17 19 20 20 19 19 20 21 22 19 16 13 10 7 3 2 2 4 6 6 6 7 8 8 8 7 8 7 8 10 11 12 13 17 20 22 24 26 29 32 35 36 37 37 34 34 36 37 36 36 35 36 37 36 35 33 30 26 21 22 28
9 9 9 11 12 13 12 11 11 11 11 9 10 11 8 5 4 4 5 6 7 10 3 7 8 5 7 10 11 11 12 11 11 12 12 13 15 18 20 20 21 21 23 23 21 20 17 14 12 10 7 4 3 2 3 4 4 4 5 7 8 8 9 8 8 10 11 14 16 17 20 23 25 27 29 31 34 37 37 36 35 34 36 38 38 38 37 38 38 39 38 35 34 32 26 24 27
9 9 10 13 13 13 14 14 11 10 6 1 6 8 4 1 1 5 5 6 12 8 7 11 8 8 10 11 12 12 11 11 12 12 12 13 14 17 20 22 23 24 24 22 20 19 17 14 13 11 10 9 8 6 3 3 4 4 4 6 7 7 9 9 9 11 10 12 14 15 17 20 23 25 27 29 32 35 37 36 35 35 37 38 39 39 37 37 38 39 40 37 36 36 30 25 27
7 4 4 8 10 11 12 11 8 6 5 2 3 5 6 4 7 12 8 9 14 3 10 9 9 11 10 11 11 10 10 11 11 12 13 14 15 17 20 23 24 22 22 21 18 17 16 15 15 14 13 12 11 10 7 4 4 5 5 6 7 7 8 8 8 9 9 9 9 11 12 14 19 22 23 25 28 31 35 36 35 35 36 37 38 38 35 35 39 40 40 40 39 37 31 28 29
5 3 5 5 7 9 8 6 6 6 8 9 5 6 8 7 7 7 6 12 9 6 11 9 12 12 12 12 12 11 12 11 10 11 13 14 16 18 19 22 22 21 21 20 18 17 16 16 18 18 16 16 14 13 10 7 6 6 6 6 7 8 8 9 8 6 6 7 6 8 10 11 14 18 19 21 25 28 32 34 34 34 35 35 35 36 35 33 36 38 39 39 37 37 35 31 30
2 4 3 4 4 7 6 5 7 7 8 8 5 7 7 8 5 2 7 10 2 10 10 10 12 12 13 12 11 12 11 10 10 11 12 13 15 18 18 19 21 22 21 20 19 18 15 16 21 22 19 18 17 15 12 10 8 8 7 8 8 8 8 9 8 7 5 5 6 7 9 9 11 15 18 19 21 25 29 31 32 33 34 34 33 35 35 33 34 37 39 40 38 37 37 34 30
1 2 2 2 4 6 5 6 6 6 7 9 6 9 6 8 5 3 5 6 3 9 8 10 11 11 11 10 10 11 9 9 10 9 11 12 13 14 15 17 19 19 19 18 17 16 14 17 24 26 23 20 19 17 14 12 10 8 7 8 9 10 10 10 9 8 7 5 6 7 8 9 10 12 15 17 19 22 26 29 31 32 33 33 32 33 35 33 32 34 38 41 40 37 36 36 33
1 2 5 5 7 6 5 5 4 5 8 7 5 11 8 6 3 1 1 1 7 8 6 9 12 11 10 8 9 9 8 8 7 8 10 11 13 13 14 15 17 18 17 16 14 13 16 22 26 27 26 23 21 20 17 14 12 10 9 8 9 9 10 10 10 10 9 8 8 7 8 9 9 10 12 15 18 21 23 25 29 31 31 31 31 33 35 34 33 34 36 39 39 38 35 35 34
2 4 5 6 5 4 4 4 3 5 6 3 4 4 7 7 3 2 2 5 6 4 6 9 11 11 9 8 8 8 8 7 7 8 9 10 11 12 13 15 15 15 14 13 13 15 21 26 26 26 28 26 24 22 20 17 14 12 11 10 9 9 9 9 10 10 11 10 10 9 8 8 9 10 11 12 15 18 20 21 24 26 27 28 30 33 35 34 33 34 35 37 38 39 37 35 34
3 4 4 5 5 4 5 5 4 6 4 3 4 1 5 9 7 7 6 4 7 5 7 11 11 11 10 8 7 6 7 7 7 9 9 8 7 9 12 12 11 10 11 13 17 20 22 25 25 26 27 26 24 23 22 19 16 15 13 12 11 10 10 10 10 10 10 10 10 9 9 9 9 9 10 12 14 16 18 19 21 24 24 26 29 31 33 33 32 32 33 36 37 38 40 38 37
6 5 4 4 5 6 7 6 6 7 3 3 1 1 5 8 7 11 14 4 10 9 9 11 12 12 11 9 8 7 7 7 8 8 7 5 5 8 10 9 9 10 13 17 20 21 21 22 23 24 24 25 25 24 23 21 18 17 15 13 12 11 10 10 10 10 10 9 9 9 10 10 11 11 10 11 13 14 17 19 21 23 24 25 27 29 31 32 32 33 34 35 36 38 40 41 40
7 3 3 5 5 6 6 6 7 9 7 3 2 2 4 5 3 2 5 7 11 9 11 11 11 11 10 9 8 7 7 7 7 6 4 4 7 9 8 8 11 13 16 18 19 20 19 19 21 22 22 22 23 23 24 24 21 19 18 15 13 11 11 11 10 11 11 11 10 10 10 10 12 13 12 12 11 12 16 19 20 22 23 23 25 27 29 30 31 33 34 34 36 37 38 40 41
3 1 2 4 3 4 4 4 5 6 8 7 5 4 6 6 5 5 3 10 13 10 12 11 10 10 8 8 8 6 6 6 5 4 4 6 9 9 9 11 12 13 15 16 17 17 17 18 20 21 20 20 22 23 24 24 23 24 22 19 16 14 12 11 11 11 12 12 12 12 11 11 11 12 13 13 11 11 14 18 20 21 23 23 23 25 26 28 30 32 33 34 34 35 36 38 39
2 2 3 2 1 1 3 5 3 2 7 8 6 7 8 8 9 9 6 8 12 10 11 10 9 9 8 7 6 5 5 4 4 4 5 8 9 10 11 12 12 12 13 14 14 15 15 16 18 18 18 19 20 22 24 25 24 26 25 23 21 18 15 13 13 13 13 12 12 12 12 12 11 11 11 12 13 12 13 17 19 20 21 22 23 24 24 26 28 30 32 33 33 33 35 38 38
2 2 2 0 1 1 3 6 5 6 10 7 7 12 11 9 7 1 7 9 9 9 9 9 8 8 7 6 5 4 4 3 4 5 6 7 9 11 11 12 12 12 12 13 14 14 14 14 14 13 14 15 16 18 21 23 24 24 24 24 24 21 19 17 15 14 13 13 12 12 12 13 13 12 12 12 12 13 15 16 18 18 19 20 22 23 24 25 26 28 30 32 33 32 33 36 38
1 2 2 1 3 3 4 6 5 8 11 7 9 13 11 9 9 6 5 9 10 9 9 8 7 7 6 6 4 4 3 2 3 4 5 6 8 10 11 11 12 12 13 14 15 16 16 14 13 12 12 13 15 15 16 17 19 19 20 21 21 21 21 20 18 16 14 13 13 13 12 13 13 13 13 12 12 14 15 16 17 18 19 20 21 22 24 25 26 27 29 30 31 32 32 34 35
1 2 3 2 2 4 6 6 5 8 11 9 10 10 9 8 8 11 7 8 12 9 8 7 6 6 5 4 4 2 2 2 3 3 4 4 5 7 7 8 10 11 12 13 15 17 17 16 17 17 16 16 16 15 15 14 14 16 18 20 20 20 19 18 16 15 14 13 13 12 12 13 13 13 13 12 12 13 14 15 16 17 19 20 21 22 23 24 25 27 28 28 29 31 33 34 34
3 4 5 4 3 3 4 4 5 7 9 9 9 8 8 5 4 5 5 8 8 7 8 6 5 6 4 3 3 2 2 2 2 2 2 2 2 3 4 6 7 8 10 11 13 14 15 16 17 17 18 18 18 17 16 15 13 13 15 18 19 21 21 20 17 15 14 14 14 14 14 14 13 13 13 12 12 11 12 14 15 16 17 18 20 21 22 23 24 25 26 27 28 29 31 33 34
7 7 7 8 7 4 6 8 6 6 7 8 9 10 7 1 5 6 8 7 6 7 8 7 6 5 4 3 2 1 1 1 1 1 1 1 2 3 4 5 6 8 9 10 10 10 11 12 13 13 14 15 16 17 17 16 15 14 13 14 16 17 18 18 18 18 18 18 17 16 16 16 15 15 14 13 12 11 11 12 14 15 16 17 18 19 20 21 23 24 25 26 27 28 29 31 32
Wind_Direction
345 334 327 317 305 295 281 283 288 228 246 274 278 307 67 54 345 305 330 23 28 49 22 331 306 288 283 311 323 322 301 283 302 315 348 101 41 154 176 192 165 155 170 163 172 187 187 185 180 180 182 183 185 183 186 189 188 187 189 188 183 179 180 181 181 182 182 182 181 182 183 183 182 179 180 182 182 183 185 183 174 169 168 166 164 158 151 153 154 150 151 150 157 174 158 131 121
345 323 307 291 279 279 294 321 291 266 256 279 307 29 29 35 284 346 10 7 7 14 351 314 296 271 270 291 290 291 289 271 285 310 1 138 208 116 189 192 166 157 170 165 170 184 185 186 182 181 186 185 186 186 188 191 189 191 192 190 186 184 185 187 187 186 186 187 187 188 189 187 185 184 178 178 184 184 181 179 175 170 168 166 161 157 151 157 151 152 171 160 168 191 179 160 133
345 319 295 273 253 250 284 244 268 298 290 295 44 60 23 323 356 16 3 359 1 352 319 294 281 264 258 255 268 288 299 310 300 305 322 187 296 116 193 195 174 157 170 171 169 181 181 187 186 181 187 188 189 189 190 193 191 193 194 192 191 190 189 191 192 189 190 191 194 196 196 191 187 185 171 167 175 174 171 169 171 167 166 163 159 158 150 153 145 158 177 151 168 201 204 215 229
6 316 284 276 250 231 262 248 271 301 293 301 356 65 46 342 354 345 347 355 347 323 293 284 262 189 249 267 312 298 281 316 14 325 309 47 43 121 193 198 180 160 170 175 171 179 180 191 192 183 186 189 191 191 192 194 195 194 195 195 194 196 192 194 196 193 194 196 201 202 201 196 188 182 170 166 168 166 170 165 164 161 161 161 154 151 147 153 156 171 163 134 188 226 237 257 271
331 285 266 270 270 274 282 276 275 269 286 323 319 13 24 346 337 330 333 331 326 303 280 266 270 150 243 278 306 290 322 338 61 333 307 54 53 214 209 199 182 167 172 176 175 178 183 196 196 187 186 189 192 194 194 195 197 197 197 198 197 198 195 197 198 196 197 201 204 202 201 196 185 178 171 170 171 173 175 165 161 161 162 166 161 154 151 167 173 184 169 144 219 247 257 271 284
261 241 226 249 276 337 277 265 267 258 292 342 304 320 339 334 338 332 319 316 345 229 257 241 279 280 259 246 222 258 334 338 328 273 256 277 265 234 220 198 180 174 176 176 178 177 188 201 200 193 187 188 194 195 197 197 199 199 200 200 199 199 197 199 199 198 201 203 202 201 200 192 181 178 178 177 178 183 182 177 179 176 176 177 174 169 163 175 176 193 196 169 230 257 266 279 288
263 230 191 224 212 219 259 264 281 284 354 23 306 312 317 319 333 322 311 317 104 159 209 232 288 289 276 220 219 235 255 263 279 251 211 248 270 234 215 193 179 179 178 176 178 179 194 201 201 200 191 189 193 197 200 199 200 201 203 202 202 202 200 201 199 201 203 203 200 198 197 190 181 180 184 188 190 192 190 193 197 196 194 192 190 186 184 190 181 194 205 184 241 268 277 283 288
261 263 181 248 225 200 259 271 277 286 331 344 298 298 300 312 325 312 309 311 301 205 204 225 238 271 268 135 258 173 180 232 235 240 238 250 260 250 216 185 184 184 179 178 178 180 198 201 199 203 196 193 194 198 203 202 202 203 206 205 205 205 204 204 201 204 204 202 199 196 196 191 187 188 194 197 204 208 213 220 220 220 215 207 206 203 207 210 195 197 201 203 255 273 277 281 285
234 252 207 264 258 230 261 266 266 276 286 298 292 286 287 297 306 303 303 296 297 303 242 238 211 256 308 294 281 150 157 211 232 247 251 252 254 250 222 187 189 185 180 179 180 181 197 202 200 203 198 196 196 200 205 205 205 204 207 207 207 207 207 206 205 205 204 203 199 197 196 192 192 197 206 212 226 237 242 244 236 233 227 221 221 216 216 213 206 209 205 223 262 273 274 278 283
216 241 259 266 268 263 262 264 274 280 287 300 289 289 293 292 298 294 296 300 315 303 257 39 233 244 290 302 292 202 148 190 237 261 252 253 245 234 222 195 190 184 183 180 183 183 195 204 202 202 198 197 197 200 205 206 207 206 207 208 208 209 208 209 209 205 204 205 199 198 197 198 203 203 213 225 243 248 244 238 229 228 228 225 221 214 208 204 207 205 203 238 266 271 272 274 271
225 202 272 273 259 268 286 305 316 315 315 302 281 291 315 331 306 276 269 287 289 288 213 155 242 251 272 283 284 158 151 209 193 194 238 247 233 218 213 203 196 185 188 185 186 185 193 206 205 201 198 198 199 201 205 206 207 207 207 208 208 209 209 210 211 206 204 204 198 198 201 208 218 218 228 234 235 235 230 225 221 219 219 215 210 202 199 200 200 198 217 253 266 263 255 208 130
253 190 232 269 277 289 314 316 314 313 307 290 273 97 60 88 244 271 280 292 293 291 251 182 235 330 279 278 292 142 152 167 145 182 234 237 225 213 200 202 202 190 191 190 189 190 192 205 206 200 198 199 201 203 205 205 205 206 207 208 208 208 210 211 209 207 204 201 200 203 206 214 226 231 236 234 228 224 219 219 218 215 213 209 205 198 198 197 196 213 240 258 255 227 187 145 128
265 284 261 273 296 297 307 304 302 306 300 300 79 103 110 208 235 291 318 301 291 290 281 170 278 323 280 287 295 227 153 139 166 215 233 200 188 211 203 195 204 194 194 196 194 194 191 196 200 200 200 201 202 204 206 206 205 206 208 209 210 209 211 210 205 204 204 205 211 213 213 218 228 232 231 234 231 222 214 215 216 214 211 210 205 200 199 195 206 232 246 244 216 188 166 152 135
284 305 286 282 295 283 287 288 297 302 301 45 82 122 173 242 255 308 300 291 290 301 15 69 297 296 277 275 275 260 127 132 185 217 213 198 192 209 206 195 205 199 199 203 199 198 195 194 195 200 204 203 204 207 208 208 207 207 209 210 211 210 209 207 203 205 208 212 217 219 219 221 227 230 229 232 230 224 217 212 213 213 210 209 205 204 199 195 219 238 235 215 197 183 172 159 138
293 299 278 275 279 274 259 263 298 299 292 1 89 124 219 245 215 237 266 279 298 2 29 270 210 249 281 273 283 66 115 146 174 201 201 207 204 211 210 204 209 203 204 205 203 202 199 198 196 200 205 205 205 207 210 211 210 209 210 211 210 210 208 206 208 211 213 216 218 220 222 222 226 231 232 231 228 226 220 210 208 209 209 207 204 203 195 201 225 233 220 206 195 186 177 160 140
276 286 260 263 273 274 234 242 286 277 293 360 118 132 270 258 188 228 268 278 293 302 259 243 199 232 271 275 292 86 134 166 154 199 193 203 205 211 216 212 213 210 210 207 206 206 202 201 199 200 203 205 206 207 210 212 213 211 210 211 210 210 210 210 212 216 218 221 222 224 224 223 226 230 232 231 228 226 218 212 208 206 205 205 203 199 194 209 227 223 213 206 196 194 182 168 145
250 258 251 258 262 266 247 238 273 288 319 342 154 174 277 288 177 202 343 254 272 278 264 253 224 234 253 259 272 132 196 223 207 205 176 189 198 204 214 214 214 213 213 211 209 207 205 204 202 202 202 204 207 208 211 213 216 215 212 211 211 211 213 214 215 219 222 224 226 227 225 223 223 226 229 231 230 226 218 213 211 206 201 202 199 196 193 209 224 218 211 208 203 200 184 182 154
223 233 247 255 257 272 274 265 287 295 297 300 288 256 277 288 261 184 258 249 254 267 267 261 245 238 246 254 259 237 239 238 214 208 197 198 201 206 210 209 210 211 211 211 211 208 206 205 204 203 203 204 205 208 211 213 217 220 217 214 214 215 216 218 219 222 223 224 227 227 224 219 215 218 222 224 225 223 220 215 213 207 198 200 198 192 188 203 221 216 212 211 203 202 195 194 169
224 247 258 255 260 281 288 280 291 291 287 295 298 290 275 279 285 283 271 271 271 271 269 267 259 246 246 250 248 238 231 224 209 213 223 219 218 221 218 208 207 211 209 208 212 209 205 204 204 204 205 203 203 206 209 211 214 218 220 218 218 219 218 220 221 223 223 221 224 225 219 213 210 210 212 215 214 213 217 215 212 205 196 200 199 190 188 202 218 215 213 210 200 202 202 202 202
231 241 256 258 263 275 272 275 283 284 290 291 290 292 282 275 281 274 264 276 277 271 269 269 270 265 259 252 248 242 225 221 217 219 231 232 230 231 230 221 211 213 213 211 212 209 206 205 205 205 206 204 203 204 207 211 212 214 219 218 218 219 219 220 220 220 220 216 218 220 214 210 208 206 210 214 211 204 208 213 209 201 196 202 203 192 193 205 214 215 211 205 203 205 203 204 209
236 223 247 266 277 280 270 280 284 282 292 288 287 289 281 279 278 260 258 274 271 262 263 265 273 286 293 291 291 273 233 223 225 224 230 234 235 233 235 234 226 222 219 214 210 207 207 207 206 207 206 204 204 203 205 210 211 213 216 214 213 214 214 215 216 215 216 214 213 215 211 209 206 201 208 211 205 195 198 206 202 196 194 201 205 196 198 208 212 216 209 202 208 207 205 207 207
254 236 247 265 274 277 274 288 293 289 296 284 280 279 280 287 273 252 249 259 260 262 274 282 286 294 300 299 302 291 247 233 239 235 232 233 234 235 237 238 236 231 219 213 212 209 210 211 208 207 206 206 205 203 204 208 210 212 212 212 210 209 209 208 209 210 212 211 209 212 211 209 207 201 199 200 198 190 192 197 194 191 189 195 201 195 198 210 212 214 209 204 209 207 207 209 208
252 256 254 262 268 273 280 292 306 278 279 273 275 281 287 282 271 264 251 249 256 263 274 284 287 289 294 293 289 276 254 250 255 250 244 239 237 237 238 239 239 232 221 217 217 214 214 214 210 206 207 206 207 205 205 208 210 212 212 211 208 205 205 204 203 206 208 208 206 208 208 206 206 201 194 195 195 192 191 191 188 189 188 192 198 191 193 205 210 212 208 207 210 208 209 211 213
243 267 268 270 274 275 281 287 273 247 264 267 277 286 281 271 273 279 267 257 260 267 271 273 278 283 286 286 279 269 260 258 259 257 253 248 245 243 240 241 242 239 231 225 221 219 217 214 211 209 209 208 207 207 206 209 211 212 212 211 210 207 205 203 202 204 206 205 204 205 205 203 203 199 194 194 194 194 193 190 187 189 188 192 195 190 193 203 209 211 208 209 211 210 211 213 215
243 257 267 273 274 273 277 280 269 256 257 262 270 272 267 265 274 280 274 269 265 267 270 270 273 279 279 276 273 269 264 261 258 259 257 252 250 249 246 242 242 240 237 232 222 219 219 215 214 212 210 209 207 206 207 209 211 212 211 211 213 212 207 204 203 203 204 203 203 206 204 202 200 195 193 194 193 193 192 190 188 189 189 189 188 190 200 207 209 210 209 210 211 211 212 214 216
255 260 274 284 284 282 279 276 268 259 257 255 255 259 263 269 278 274 269 271 270 263 265 271 273 276 277 273 269 267 266 262 258 260 260 256 251 248 244 237 235 235 235 234 226 222 221 216 215 216 215 213 207 205 207 208 210 211 210 210 212 214 209 203 203 203 203 202 203 207 207 203 199 195 196 194 193 193 190 189 188 187 187 187 190 195 206 210 209 210 211 210 210 210 212 214 215
308 292 292 288 285 283 276 272 267 260 260 255 246 255 267 275 275 268 268 273 276 265 264 274 279 279 278 275 268 264 264 260 257 260 263 261 251 244 239 230 232 236 233 231 227 224 224 219 217 220 220 216 210 207 208 208 209 210 209 208 210 213 210 203 202 204 203 203 205 207 207 206 203 198 197 194 192 193 190 190 190 188 189 195 201 203 209 211 209 211 212 210 209 209 211 213 212
300 300 299 284 279 278 269 265 263 255 258 256 246 255 269 273 255 252 266 270 269 272 273 276 279 280 279 277 273 264 258 255 252 250 250 252 246 243 240 229 231 237 238 239 236 227 222 220 219 220 218 215 214 210 211 212 208 209 210 208 209 210 211 206 202 204 204 203 205 207 209 211 210 202 197 198 195 192 192 194 195 196 199 205 208 209 212 210 207 210 211 210 207 206 209 210 208
286 291 290 283 281 275 268 264 259 251 244 200 234 257 258 254 242 241 252 260 263 265 273 279 278 281 281 279 276 266 261 259 253 244 240 244 240 242 247 246 241 239 244 249 246 231 219 219 219 220 215 213 218 214 214 217 212 208 208 207 209 208 211 210 204 204 205 203 206 213 217 217 214 206 200 205 203 194 196 201 202 204 207 210 212 211 213 210 206 208 209 207 204 203 206 208 205
277 278 272 282 285 275 271 262 245 241 207 135 192 268 262 255 256 255 257 260 259 256 275 289 288 286 283 280 277 270 267 266 264 263 260 257 249 246 252 259 257 250 248 247 242 232 225 225 223 222 216 213 219 217 213 216 213 209 208 208 209 207 208 209 205 205 207 207 213 221 223 219 215 210 203 208 208 201 203 208 209 209 210 212 213 213 213 210 207 209 209 206 204 203 206 210 204
273 278 259 261 272 276 277 234 179 206 168 156 207 263 277 275 273 274 283 271 255 264 281 290 289 286 282 276 274 270 269 269 274 280 280 278 275 268 263 266 267 263 259 249 240 238 233 231 228 224 221 217 217 217 213 212 211 209 208 208 208 207 207 210 209 210 210 211 217 224 224 219 216 213 208 210 212 208 209 212 212 211 211 213 214 215 213 210 208 210 210 205 204 203 206 209 202
261 274 262 248 257 276 278 221 195 232 200 171 204 261 281 276 277 279 290 275 262 273 281 284 281 280 280 278 273 271 273 277 284 288 290 291 292 288 279 277 278 273 268 260 252 245 235 231 233 229 226 223 217 216 216 213 212 211 210 210 209 208 208 211 211 210 211 211 217 225 226 220 217 215 213 214 215 213 212 214 215 214 214 214 215 215 213 210 208 209 209 205 203 200 201 204 197
245 250 261 264 269 282 285 260 248 262 204 182 212 257 284 279 286 288 286 282 280 281 282 280 276 276 279 280 278 276 281 287 293 301 308 309 308 308 304 301 298 290 282 273 264 254 243 236 235 233 231 227 219 216 217 214 212 211 212 213 211 209 209 210 209 209 210 212 215 222 226 222 218 217 215 216 217 216 216 217 217 216 217 216 215 215 212 208 207 207 206 203 202 199 198 200 190
259 254 261 265 267 281 287 292 298 257 187 223 233 245 266 274 282 280 277 279 280 280 279 277 277 280 281 281 282 283 288 296 312 328 329 332 337 338 334 333 329 316 306 292 277 265 259 249 237 235 235 227 218 216 215 212 211 211 212 213 212 210 212 213 211 211 213 217 218 218 222 222 219 218 217 217 218 218 218 218 218 217 218 217 214 215 212 207 206 207 205 202 201 199 199 198 188
284 285 285 283 278 286 290 290 301 280 255 270 271 263 272 283 287 283 279 280 276 271 273 277 282 284 280 280 283 287 300 323 344 350 354 7 11 6 2 360 358 348 337 328 312 286 270 263 246 239 237 226 218 216 213 210 210 212 213 214 215 214 221 224 218 216 218 223 225 218 220 222 220 218 217 218 219 218 219 218 217 219 219 216 213 214 211 205 205 206 205 202 198 197 199 196 188
286 290 290 289 286 284 286 285 289 293 286 284 284 282 288 293 293 291 284 281 277 271 273 281 283 278 275 281 292 316 1 359 8 23 29 34 26 17 15 12 12 14 13 10 6 350 297 273 259 246 238 225 217 214 209 207 208 212 215 218 221 220 227 231 225 224 227 228 227 222 222 224 222 220 219 219 219 218 219 218 217 219 220 216 212 213 210 206 207 206 205 203 196 190 191 189 189
284 287 282 280 281 280 282 283 285 292 290 282 284 288 293 297 297 289 280 278 278 275 274 273 271 271 278 297 47 41 15 17 48 54 45 38 30 24 20 16 17 21 19 20 23 15 353 305 271 256 241 220 212 211 207 206 208 211 215 218 223 223 226 231 229 228 232 232 227 223 227 227 224 222 220 220 220 218 217 218 218 219 219 216 215 215 212 209 209 207 204 203 200 192 185 184 188
280 281 280 277 279 281 282 284 289 299 296 284 288 290 292 296 291 281 279 279 276 273 268 262 266 280 333 70 51 5 39 83 72 54 44 37 31 26 23 20 20 20 16 16 20 16 8 355 304 269 248 221 213 213 209 211 214 214 218 221 224 225 225 229 227 227 232 232 225 225 229 229 227 225 223 221 221 219 217 217 219 221 220 217 216 215 213 210 209 207 202 202 201 197 192 187 187
274 272 275 276 281 285 285 287 292 318 308 291 297 298 294 287 277 277 279 269 256 260 261 262 277 332 45 29 15 85 96 83 60 46 40 34 30 27 25 25 24 22 17 16 17 16 15 12 358 321 273 235 225 221 217 220 222 220 223 227 226 226 228 227 223 225 229 227 224 228 231 231 230 228 226 224 222 221 220 219 220 222 221 218 215 213 211 211 210 207 204 202 198 195 195 194 193
259 261 271 275 281 284 288 297 306 307 286 290 301 297 287 276 264 263 266 242 233 257 264 285 29 53 54 51 68 85 82 66 53 45 36 31 28 25 23 23 23 23 21 19 16 15 13 11 9 358 342 296 261 237 230 233 232 222 218 225 224 220 225 224 219 223 225 224 228 232 234 235 233 231 230 228 226 224 223 222 221 223 223 220 217 214 212 211 211 209 206 204 196 190 190 196 200
258 256 261 267 275 282 291 304 310 304 288 290 309 300 286 277 221 187 216 219 253 264 226 88 79 84 85 80 72 66 63 55 49 44 36 33 29 25 24 22 22 22 20 17 14 13 9 10 16 14 15 15 357 318 258 245 237 224 211 225 229 225 232 232 225 226 225 229 232 234 237 238 236 235 233 232 230 229 226 224 223 224 224 222 219 217 215 214 213 211 208 205 201 197 192 193 199
269 256 256 266 280 289 296 307 314 308 291 34 3 321 295 96 217 271 273 262 272 268 114 103 103 100 93 84 71 61 58 51 45 43 39 36 31 29 28 24 23 22 17 12 10 12 8 10 26 33 37 36 21 10 335 278 254 248 240 244 246 242 244 240 235 235 229 230 232 231 234 236 236 237 235 234 234 231 229 226 224 225 225 224 221 219 218 217 214 213 210 206 205 205 198 189 195
269 274 292 286 292 297 300 310 313 300 292 317 1 306 284 283 272 275 277 264 264 261 91 98 105 97 84 73 67 55 49 49 45 40 37 33 29 28 27 25 23 19 14 11 11 13 9 14 32 41 45 44 32 21 8 341 312 289 273 269 270 270 269 265 261 253 242 239 234 227 226 229 234 235 232 233 235 233 231 229 227 226 226 225 223 219 218 219 218 216 214 210 209 208 202 195 195
268 15 1 320 305 301 304 309 292 283 295 289 245 229 266 284 281 266 234 250 256 99 93 104 105 95 82 74 70 60 49 48 46 39 37 33 28 27 26 25 22 17 13 11 13 16 13 19 37 44 45 43 35 28 25 10 347 331 314 299 287 282 283 285 289 281 256 246 237 227 223 223 230 233 228 228 233 235 233 231 230 229 228 227 226 222 219 221 220 218 216 214 211 209 206 203 200
286 52 353 327 308 294 298 292 283 286 297 290 214 194 259 283 294 253 209 245 252 97 102 107 99 87 86 83 80 75 62 53 50 46 42 37 33 29 27 26 24 20 12 8 15 17 13 23 40 46 44 40 35 32 31 23 6 351 335 323 312 302 297 293 292 291 276 254 238 229 226 225 227 231 229 226 229 233 235 234 231 230 230 228 227 225 223 224 223 221 218 215 212 212 211 209 207
36 71 286 277 255 259 266 265 280 288 275 277 232 193 242 294 298 248 223 243 131 110 107 103 93 77 79 83 81 81 74 60 52 49 48 43 38 33 31 33 29 23 12 7 14 14 15 29 39 43 42 38 35 33 33 29 19 6 349 338 329 320 314 309 302 295 290 275 255 242 234 233 229 227 228 227 228 233 236 236 234 232 233 231 230 229 227 226 225 224 222 220 216 215 214 213 212
48 276 280 276 250 237 244 246 263 274 262 286 254 196 217 293 316 288 287 128 132 134 135 124 109 92 83 77 76 74 70 65 55 53 51 42 39 35 32 33 30 24 14 8 10 12 25 36 38 40 39 37 35 33 32 31 26 17 3 349 336 327 320 313 308 303 299 291 279 267 253 245 237 230 228 227 230 233 233 234 236 236 234 232 231 232 230 226 226 226 225 224 221 219 218 217 216
243 264 286 294 268 223 232 224 201 259 267 352 34 181 224 254 261 348 31 115 137 143 145 136 114 103 98 82 73 67 63 63 53 51 46 35 33 31 30 31 30 23 12 6 12 20 32 36 37 38 37 35 33 32 32 30 27 21 9 357 344 332 324 315 308 305 303 299 292 284 274 261 250 240 233 229 232 235 231 230 234 234 232 230 230 233 232 229 229 229 227 225 222 221 221 220 220
218 242 254 283 288 261 262 252 234 263 266 82 59 30 251 253 261 274 262 150 120 108 122 130 119 109 105 90 78 67 62 59 51 48 42 30 24 27 30 29 28 23 12 14 23 28 34 35 35 38 35 31 32 33 33 31 27 22 13 2 353 340 330 321 310 304 302 300 298 294 288 278 269 257 243 237 239 243 239 233 234 234 230 231 233 234 234 232 230 229 229 228 225 224 223 222 223
195 213 223 248 280 281 278 275 268 271 271 108 132 289 274 264 262 252 244 173 107 104 105 115 118 114 110 100 88 73 64 58 53 53 44 29 30 37 35 26 24 23 19 23 27 29 34 34 35 37 35 32 34 35 35 34 29 24 18 9 0 349 338 327 316 312 309 305 302 299 297 291 287 280 267 257 250 248 250 247 245 242 236 234 236 237 236 234 232 230 230 230 228 228 227 225 226
197 211 235 248 263 265 273 279 275 281 297 294 224 235 273 274 352 287 226 114 103 107 99 99 103 103 104 97 85 72 64 59 56 59 50 40 45 42 36 29 28 26 24 28 29 30 33 34 35 38 35 32 33 35 37 38 34 29 24 16 8 358 345 335 325 320 317 313 308 302 298 295 293 292 288 282 265 250 256 260 254 249 245 240 238 239 238 236 234 232 232 232 231 231 230 229 229
197 103 250 256 254 238 264 283 279 294 300 282 242 240 264 272 313 295 211 109 101 106 102 100 97 94 95 86 77 67 60 54 52 55 41 39 43 40 35 33 31 28 27 29 29 30 32 33 36 38 36 35 36 38 39 40 39 37 33 25 17 9 357 347 337 330 325 318 311 304 297 289 288 290 291 293 283 258 258 268 265 258 255 249 243 241 240 238 236 235 234 234 234 233 232 231 231
145 147 226 251 331 257 272 275 256 252 274 272 257 262 270 274 279 261 211 114 100 109 107 102 100 96 89 80 76 69 59 48 41 38 32 35 35 33 35 33 31 29 29 31 30 30 32 34 36 36 34 36 40 42 42 42 42 41 38 34 29 21 9 358 346 335 330 324 316 308 302 295 289 285 283 286 283 269 265 271 270 264 259 254 250 246 243 242 240 239 237 236 236 235 234 233 232
157 199 249 6 317 254 254 263 257 248 259 263 258 266 276 278 281 205 130 123 118 120 112 106 106 101 91 87 85 80 73 51 40 38 33 32 29 27 29 27 26 26 27 30 30 30 34 36 37 36 33 33 33 37 40 41 42 40 38 37 36 33 26 18 8 353 340 331 324 316 311 307 300 295 288 281 278 275 274 273 269 265 260 256 253 250 247 246 244 241 241 240 239 238 238 237 235
204 292 335 314 273 262 243 253 261 259 263 265 254 260 270 265 264 269 216 164 141 127 121 117 112 108 104 104 102 92 87 65 51 48 37 33 29 25 22 17 17 18 20 24 27 32 35 35 35 36 35 33 32 34 37 39 41 41 40 39 38 39 38 34 26 15 3 348 336 326 319 314 308 304 298 290 284 280 278 276 271 268 265 260 257 253 251 249 246 244 244 243 241 240 240 241 239
95 297 274 231 268 278 261 258 261 262 265 268 259 254 258 261 275 290 273 159 143 139 132 120 107 106 106 110 114 102 92 76 58 55 45 38 32 22 14 8 8 11 13 17 24 28 28 28 32 32 31 32 31 31 33 33 33 35 37 38 37 39 40 37 30 22 14 4 355 348 339 329 318 310 304 297 291 286 283 280 276 272 269 265 261 257 254 251 248 247 246 244 243 242 241 242 242
222 235 239 224 228 264 274 254 238 253 263 264 265 258 252 269 330 360 58 107 129 132 124 116 103 102 97 94 98 78 75 69 52 55 44 29 27 15 9 6 6 11 14 16 19 20 18 21 26 26 28 30 30 29 29 27 22 20 22 24 27 31 33 33 31 28 22 14 7 3 358 352 340 327 317 308 300 294 290 286 281 276 272 268 265 261 258 254 251 251 249 247 246 244 243 242 242
270 259 255 257 258 258 261 252 229 232 253 254 261 262 251 318 17 47 77 82 86 104 116 117 109 109 105 94 83 66 71 61 49 48 8 360 2 357 2 6 8 14 17 18 19 17 15 16 17 18 21 23 25 27 27 25 22 17 12 11 15 18 20 21 24 26 25 23 20 15 8 2 354 344 335 326 318 311 304 296 289 284 278 273 269 265 262 258 254 254 253 250 249 246 244 244 244